Hourly Weather Abdul-Zavod

Today, 22 April, Thursday

Time Temperature Precipitation Wind Pressure Humidity
00:00 0°C° 1 mm 7 mps 757 mmHg 94%
01:00 0°C° 1.1 mm 7 mps 758 mmHg 95%
02:00 0°C° 1.1 mm 7 mps 758 mmHg 95%
03:00 0°C° 0 mm 7 mps 758 mmHg 96%
04:00 +2°C° 0.4 mm 6 mps 758 mmHg 93%
05:00 +2°C° 0.4 mm 6 mps 758 mmHg 91%
06:00 +2°C° 0.4 mm 5 mps 758 mmHg 89%
07:00 +3°C° 0 mm 5 mps 758 mmHg 85%
08:00 +3°C° 0 mm 5 mps 758 mmHg 82%
09:00 +5°C° 0 mm 5 mps 758 mmHg 79%
10:00 +5°C° 0 mm 5 mps 758 mmHg 78%
11:00 +4°C° 0 mm 6 mps 758 mmHg 78%
12:00 +5°C° 0 mm 6 mps 758 mmHg 78%
13:00 +5°C° 0 mm 6 mps 758 mmHg 76%
14:00 +6°C° 0 mm 5 mps 758 mmHg 75%
15:00 +6°C° 0 mm 5 mps 758 mmHg 74%
16:00 +6°C° 0 mm 5 mps 758 mmHg 73%
17:00 +6°C° 0 mm 5 mps 758 mmHg 73%
18:00 +5°C° 0 mm 5 mps 758 mmHg 73%
19:00 +5°C° 0 mm 5 mps 758 mmHg 79%
20:00 +3°C° 0 mm 5 mps 758 mmHg 86%
21:00 +2°C° 0 mm 5 mps 758 mmHg 92%
22:00 +3°C° 0 mm 4 mps 758 mmHg 92%
23:00 +3°C° 0 mm 4 mps 758 mmHg 93%

Tomorrow, 23 April, Friday

Time Temperature Precipitation Wind Pressure Humidity
00:00 +3°C° 0 mm 4 mps 758 mmHg 93%
01:00 +3°C° 0 mm 3 mps 758 mmHg 94%
02:00 +3°C° 0 mm 3 mps 758 mmHg 96%
03:00 +4°C° 0 mm 2 mps 758 mmHg 97%
04:00 +4°C° 0 mm 2 mps 758 mmHg 95%
05:00 +4°C° 0 mm 2 mps 759 mmHg 93%
06:00 +3°C° 0 mm 3 mps 759 mmHg 92%
07:00 +5°C° 0 mm 3 mps 758 mmHg 86%
08:00 +7°C° 0 mm 3 mps 758 mmHg 81%
09:00 +8°C° 0 mm 3 mps 758 mmHg 75%
10:00 +10°C° 0 mm 3 mps 758 mmHg 70%
11:00 +11°C° 0 mm 3 mps 757 mmHg 64%
12:00 +12°C° 0 mm 3 mps 757 mmHg 59%
13:00 +13°C° 0 mm 4 mps 757 mmHg 56%
14:00 +13°C° 0 mm 4 mps 756 mmHg 53%
15:00 +14°C° 0 mm 4 mps 756 mmHg 50%
16:00 +13°C° 0 mm 4 mps 755 mmHg 54%
17:00 +12°C° 0 mm 4 mps 755 mmHg 59%
18:00 +11°C° 0 mm 3 mps 755 mmHg 64%
19:00 +11°C° 0 mm 3 mps 754 mmHg 68%
20:00 +10°C° 0 mm 3 mps 754 mmHg 73%
21:00 +9°C° 0 mm 3 mps 754 mmHg 77%
22:00 +8°C° 0.1 mm 3 mps 753 mmHg 81%
23:00 +7°C° 0.1 mm 4 mps 753 mmHg 85%

Day after tomorrow, 24 April, Saturday

Time Temperature Precipitation Wind Pressure Humidity
00:00 +6°C° 0.1 mm 4 mps 752 mmHg 89%
01:00 +6°C° 0.4 mm 4 mps 752 mmHg 89%
02:00 +6°C° 0.4 mm 4 mps 751 mmHg 90%
03:00 +6°C° 0.4 mm 4 mps 751 mmHg 91%
04:00 +6°C° 0.4 mm 4 mps 750 mmHg 92%
05:00 +6°C° 0.4 mm 4 mps 749 mmHg 92%
06:00 +6°C° 0.4 mm 4 mps 749 mmHg 93%
07:00 +6°C° 0.4 mm 4 mps 748 mmHg 92%
08:00 +6°C° 0.4 mm 4 mps 748 mmHg 91%
09:00 +6°C° 0.4 mm 4 mps 748 mmHg 90%
10:00 +7°C° 0.4 mm 3 mps 748 mmHg 91%
11:00 +7°C° 0.4 mm 3 mps 747 mmHg 91%
12:00 +7°C° 0.4 mm 3 mps 747 mmHg 91%
13:00 +7°C° 0.2 mm 2 mps 747 mmHg 91%
14:00 +7°C° 0.2 mm 2 mps 747 mmHg 92%
15:00 +7°C° 0.2 mm 2 mps 747 mmHg 92%
16:00 +7°C° 0.1 mm 2 mps 747 mmHg 92%
17:00 +7°C° 0.1 mm 2 mps 747 mmHg 92%
18:00 +7°C° 0.1 mm 2 mps 747 mmHg 92%
19:00 +7°C° 0.1 mm 2 mps 746 mmHg 93%
20:00 +7°C° 0.1 mm 2 mps 746 mmHg 94%
21:00 +7°C° 0.1 mm 2 mps 746 mmHg 95%
22:00 +7°C° 0 mm 3 mps 746 mmHg 93%
23:00 +6°C° 0 mm 4 mps 745 mmHg 91%

25 April, Sunday

Time Temperature Precipitation Wind Pressure Humidity
00:00 +6°C° 0 mm 4 mps 745 mmHg 89%
01:00 +6°C° 0.2 mm 4 mps 745 mmHg 89%
02:00 +6°C° 0.2 mm 5 mps 744 mmHg 90%
03:00 +6°C° 0.2 mm 5 mps 744 mmHg 91%
04:00 +6°C° 0.5 mm 5 mps 744 mmHg 89%
05:00 +4°C° 0.5 mm 6 mps 745 mmHg 87%
06:00 +4°C° 0.5 mm 6 mps 745 mmHg 85%
07:00 +4°C° 0.1 mm 7 mps 746 mmHg 86%
08:00 +4°C° 0.1 mm 7 mps 746 mmHg 87%
09:00 +4°C° 0.1 mm 7 mps 747 mmHg 88%
10:00 +5°C° 0.1 mm 7 mps 747 mmHg 75%
11:00 +8°C° 0.1 mm 7 mps 747 mmHg 61%
12:00 +9°C° 0.1 mm 7 mps 747 mmHg 47%
13:00 +9°C° 0.3 mm 7 mps 747 mmHg 48%
14:00 +9°C° 0.3 mm 8 mps 748 mmHg 50%
15:00 +7°C° 0.3 mm 9 mps 748 mmHg 51%
16:00 +6°C° 0 mm 8 mps 748 mmHg 55%
17:00 +6°C° 0 mm 7 mps 749 mmHg 60%
18:00 +5°C° 0 mm 7 mps 749 mmHg 64%
19:00 +5°C° 0 mm 6 mps 750 mmHg 68%
20:00 +5°C° 0 mm 5 mps 750 mmHg 72%
21:00 +4°C° 0 mm 4 mps 751 mmHg 75%
22:00 +3°C° 0 mm 4 mps 751 mmHg 77%
23:00 +3°C° 0 mm 4 mps 751 mmHg 78%

26 April, Monday

Time Temperature Precipitation Wind Pressure Humidity
00:00 +3°C° 0 mm 3 mps 751 mmHg 79%
01:00 +2°C° 0 mm 3 mps 752 mmHg 80%
02:00 +2°C° 0 mm 3 mps 752 mmHg 81%
03:00 +1°C° 0 mm 3 mps 752 mmHg 81%
04:00 +2°C° 0 mm 3 mps 753 mmHg 79%
05:00 +3°C° 0 mm 2 mps 753 mmHg 76%
06:00 +4°C° 0 mm 2 mps 753 mmHg 73%
07:00 +4°C° 0 mm 3 mps 753 mmHg 66%
08:00 +7°C° 0 mm 3 mps 753 mmHg 58%
09:00 +9°C° 0 mm 3 mps 753 mmHg 50%
10:00 +8°C° 0 mm 4 mps 753 mmHg 46%
11:00 +10°C° 0 mm 4 mps 752 mmHg 42%
12:00 +11°C° 0 mm 4 mps 752 mmHg 38%
13:00 +11°C° 0 mm 4 mps 752 mmHg 37%
14:00 +11°C° 0 mm 3 mps 752 mmHg 37%
15:00 +11°C° 0 mm 3 mps 751 mmHg 36%
16:00 +12°C° 0 mm 2 mps 751 mmHg 41%
17:00 +10°C° 0 mm 2 mps 750 mmHg 46%
18:00 +11°C° 0 mm 1 mps 750 mmHg 51%
19:00 +10°C° 0 mm 1 mps 750 mmHg 53%
20:00 +9°C° 0 mm 1 mps 749 mmHg 55%
21:00 +8°C° 0 mm 1 mps 749 mmHg 56%
22:00 +7°C° 0 mm 1 mps 749 mmHg 59%
23:00 +7°C° 0 mm 1 mps 749 mmHg 62%

27 April, Tuesday

Time Temperature Precipitation Wind Pressure Humidity
00:00 +6°C° 0 mm 1 mps 748 mmHg 65%
01:00 +6°C° 0 mm 1 mps 748 mmHg 68%
02:00 +5°C° 0 mm 1 mps 748 mmHg 70%
03:00 +5°C° 0 mm 1 mps 748 mmHg 72%
04:00 +6°C° 0 mm 1 mps 748 mmHg 72%
05:00 +6°C° 0 mm 1 mps 748 mmHg 71%
06:00 +7°C° 0 mm 1 mps 748 mmHg 70%
07:00 +7°C° 0 mm 2 mps 748 mmHg 64%
08:00 +9°C° 0 mm 3 mps 747 mmHg 57%
09:00 +10°C° 0 mm 4 mps 747 mmHg 50%
10:00 +11°C° 0 mm 4 mps 747 mmHg 49%
11:00 +12°C° 0 mm 5 mps 747 mmHg 47%
12:00 +11°C° 0 mm 6 mps 747 mmHg 46%
13:00 +11°C° 0.2 mm 6 mps 747 mmHg 50%
14:00 +10°C° 0.2 mm 6 mps 747 mmHg 55%
15:00 +9°C° 0.2 mm 6 mps 747 mmHg 59%
16:00 +9°C° 0 mm 5 mps 747 mmHg 58%
17:00 +10°C° 0 mm 4 mps 747 mmHg 56%
18:00 +9°C° 0 mm 3 mps 747 mmHg 55%
19:00 +8°C° 0 mm 3 mps 747 mmHg 58%
20:00 +8°C° 0 mm 3 mps 748 mmHg 61%
21:00 +7°C° 0 mm 2 mps 748 mmHg 64%
22:00 +6°C° 0 mm 2 mps 748 mmHg 65%
23:00 +5°C° 0 mm 3 mps 748 mmHg 67%
Show more